Weather History for Mason City, IA

Change the Weather History Date:

Wednesday, March 5, 2014

  Actual Average Record
Temperature  
Mean Temperature 15 °F 28 °F  
Max Temperature 20 °F 37 °F 71 °F (2000)
Min Temperature 10 °F 20 °F -15 °F (1960)
Degree Days  
Heating Degree Days 50 37  
Month to date heating degree days 309 189  
Since 1 July heating degree days 6855 6040  
Cooling Degree Days 0 0  
Month to date cooling degree days 0 0  
Year to date cooling degree days 0 0  
Moisture  
Dew Point 12 °F    
Average Humidity 85    
Maximum Humidity 96    
Minimum Humidity 73    
Precipitation  
Precipitation 0.01 in 0.06 in 1.09 in (1992)
Month to date precipitation 0.33 0.27  
Year to date precipitation 3.35 2.09  
Snow  
Snow 1.00 in 0.20 in 6.00 in (1959)
Month to date snowfall 5.0 1.2  
Since 1 July snowfall 51.1 33.7  
Snow Depth 22.00 in    
Sea Level Pressure  
Sea Level Pressure 30.35 in    
Wind  
Wind Speed 12 mph (East)    
Max Wind Speed 18 mph    
Max Gust Speed 20 mph    
Visibility 7 miles    
Events Snow    
T = Trace of Precipitation, MM = Missing Value Source: NWS Daily Summary

Daily Weather History Graph

Daily Weather History Graph

Search for Another Location

Airport:

Trip Planner

Search our weather history database for the weather conditions in past years. The results will help you decide how hot, cold, wet, or windy it might be!

Date:

Astronomy

Mar. 05, 2014 Rise Set
Actual Time 6:42 AM CST 6:07 PM CST
Civil Twilight 6:14 AM CST 6:35 PM CST
Nautical Twilight 5:41 AM CST 7:08 PM CST
Astronomical Twilight 5:08 AM CST 7:42 PM CST
Moon 9:00 AM CST (3/5) 11:25 PM CST (3/5)
Length of Visible Light 12h 21m
Length of Day
11h 24m
Waxing Crescent, 23% of the Moon is Illuminated
Mar 5
Waxing Crescent
Mar 8
First Quarter
Mar 16
Full
Mar 23
Last Quarter
Mar 30
New

Hourly Weather History & Observations

Time (CST) Temp. Windchill Dew Point Humidity Pressure Visibility Wind Dir Wind Speed Gust Speed Precip Events Conditions
12:53 AM 17.1 °F 3.6 °F 14.0 °F 88% 30.28 in 5.0 mi ENE 12.7 mph - 0.00 in Snow Light Snow
1:08 AM 17.1 °F 3.0 °F 14.0 °F 88% 30.22 in 2.5 mi ENE 13.8 mph - 0.00 in Snow Light Snow
1:23 AM 17.1 °F 3.0 °F 14.0 °F 88% 30.23 in 1.8 mi ENE 13.8 mph - 0.00 in Snow Light Snow
1:50 AM 15.8 °F 1.4 °F 14.0 °F 93% 30.22 in 1.0 mi ENE 13.8 mph - 0.00 in Snow Light Snow
1:53 AM 16.0 °F 2.3 °F 14.0 °F 92% 30.28 in 1.0 mi ENE 12.7 mph - 0.00 in Snow Light Snow
2:44 AM 16.0 °F 2.9 °F 14.0 °F 92% 30.23 in 1.2 mi East 11.5 mph - 0.01 in Snow Light Snow
2:53 AM 16.0 °F 2.9 °F 14.0 °F 92% 30.29 in 1.5 mi East 11.5 mph - 0.01 in Snow Light Snow
3:12 AM 16.0 °F 2.3 °F 14.0 °F 92% 30.24 in 2.0 mi ENE 12.7 mph - 0.00 in Snow Light Snow
3:25 AM 16.0 °F 1.7 °F 14.0 °F 92% 30.24 in 4.0 mi ENE 13.8 mph - 0.00 in Snow Light Snow
3:53 AM 16.0 °F 2.3 °F 14.0 °F 92% 30.31 in 6.0 mi ENE 12.7 mph - 0.00 in   Overcast
4:53 AM 16.0 °F 1.7 °F 12.9 °F 88% 30.33 in 9.0 mi ENE 13.8 mph - N/A   Overcast
5:53 AM 14.0 °F -0.8 °F 12.0 °F 92% 30.32 in 8.0 mi East 13.8 mph - N/A   Mostly Cloudy
6:53 AM 10.0 °F -3.7 °F 8.1 °F 92% 30.35 in 8.0 mi ENE 10.4 mph - N/A   Clear
7:53 AM 10.9 °F -0.8 °F 8.1 °F 88% 30.38 in 9.0 mi ENE 8.1 mph - N/A   Mostly Cloudy
8:03 AM 10.9 °F -2.6 °F 8.1 °F 88% 30.32 in 9.0 mi NE 10.4 mph - N/A   Scattered Clouds
8:53 AM 14.0 °F -0.2 °F 10.0 °F 84% 30.40 in 10.0 mi East 12.7 mph - N/A   Clear
9:53 AM 15.1 °F 1.1 °F 10.9 °F 84% 30.42 in 10.0 mi East 12.7 mph - N/A   Mostly Cloudy
10:53 AM 17.1 °F 2.5 °F 12.0 °F 81% 30.43 in 6.0 mi East 15.0 mph - N/A   Haze
11:18 AM 18.0 °F 3.6 °F 12.9 °F 81% 30.38 in 9.0 mi East 15.0 mph - N/A   Overcast
11:53 AM 18.0 °F 3.6 °F 12.9 °F 81% 30.44 in 6.0 mi East 15.0 mph - N/A   Haze
12:18 PM 19.0 °F 5.6 °F 12.9 °F 77% 30.38 in 8.0 mi ESE 13.8 mph - N/A   Overcast
12:31 PM 19.0 °F 5.0 °F 12.9 °F 77% 30.38 in 8.0 mi East 15.0 mph - N/A   Overcast
12:53 PM 19.0 °F 5.6 °F 12.9 °F 77% 30.43 in 8.0 mi ESE 13.8 mph - N/A   Overcast
1:53 PM 19.0 °F 5.0 °F 12.9 °F 77% 30.42 in 10.0 mi ESE 15.0 mph - N/A   Overcast
2:53 PM 19.9 °F 7.9 °F 12.9 °F 74% 30.41 in 10.0 mi SE 11.5 mph - N/A   Overcast
3:53 PM 19.9 °F 7.9 °F 12.9 °F 74% 30.41 in 10.0 mi ESE 11.5 mph - N/A   Mostly Cloudy
4:00 PM 19.9 °F 8.6 °F 12.9 °F 74% 30.36 in 10.0 mi East 10.4 mph - N/A   Scattered Clouds
4:53 PM 19.0 °F 5.6 °F 12.9 °F 77% 30.41 in 10.0 mi ESE 13.8 mph - N/A   Overcast
5:53 PM 19.0 °F 6.8 °F 12.0 °F 74% 30.41 in 10.0 mi ESE 11.5 mph - N/A   Overcast
6:53 PM 19.0 °F 7.5 °F 12.9 °F 77% 30.43 in 10.0 mi ESE 10.4 mph - N/A   Overcast
7:53 PM 19.0 °F 7.5 °F 12.9 °F 77% 30.43 in 10.0 mi SE 10.4 mph - N/A   Overcast
8:53 PM 19.0 °F 5.6 °F 12.9 °F 77% 30.40 in 10.0 mi SE 13.8 mph - N/A   Overcast
9:53 PM 18.0 °F 6.1 °F 12.9 °F 81% 30.41 in 10.0 mi SE 10.4 mph - N/A   Overcast
10:53 PM 15.1 °F 2.5 °F 10.0 °F 80% 30.40 in 10.0 mi SSE 10.4 mph - N/A   Clear
11:53 PM 15.1 °F 1.1 °F 10.9 °F 84% 30.38 in 10.0 mi SE 12.7 mph - N/A   Overcast